Track HINODE (SOLAR B) now! 10-day predictions HINODE (SOLAR B) is classified as:
1 29479U 06041A 26221.05460078 .00000323 00000-0 63815-4 0 9990 2 29479 98.0554 236.4297 0018754 118.1204 242.1899 14.68686476 62637